Regional Weather Roundup
Issued by NWS

Home | Current Version | Previous Version | Text Only | Print | Product List | Glossary Off
Versions: 1 2 3 4 5 6 7 8 9 10 11 12 13 14 15 16 17 18 19 20 21 22 23 24 25 26 27 28 29 30 31 32 33 34 35 36 37 38 39 40 41 42 43 44 45 46 47 48 49 50

000
ASUS45 KTFX 222310
RWRMT
MONTANA REGIONAL WEATHER ROUNDUP
NATIONAL WEATHER SERVICE GREAT FALLS MT
500 PM MDT FRI JUL 22 2016

NOTE: "FAIR" INDICATES FEW OR NO CLOUDS BELOW 12000 FEET WITH NO
SIGNIFICANT WEATHER AND/OR OBSTRUCTIONS TO VISIBILITY.

MTZ001>007-043-230000-
WEST OF THE DIVIDE

CITY           SKY/WX    TMP DP  RH WIND       PRES   REMARKS
KALISPELL      PTSUNNY   75  45  34 N13G22    30.10R
MISSOULA       SUNNY     83  44  25 NW16G32   30.05S
BUTTE          SUNNY     87  19   8 W18G36    30.01F
MULLAN PASS    PTSUNNY   55  46  71 VRB6      30.25S
ANACONDA         N/A     84  37  18 W17G29    30.00S
DEER LODGE       N/A     82  41  23 NW26G32   30.00R
EUREKA           N/A     66  48  52 SE6       30.10F
HAMILTON         N/A     82  43  24 W10G18    30.02R
LIBBY            N/A     70  45  40 CALM      30.12S
RONAN            N/A     76  48  37 W18       30.13R
$$

MTZ008-052>055-230000-
SOUTHWEST MONTANA

CITY           SKY/WX    TMP DP  RH WIND       PRES   REMARKS
BOZEMAN        MOSUNNY   94  35  12 SW18      29.91F
DILLON         SUNNY     86  32  14 W30G38    29.96F
W YELLOWSTONE  SUNNY     84  32  15 SW23G31   30.17F
ENNIS          SUNNY     91  23   8 SW20G37   30.03S
THREE FORKS      N/A     96 N/A N/A SW12      29.88F
TWIN BRIDGES     N/A     92  41  17 SW10      29.94F
$$

MTZ009-010-012-014-046-048-049-054-230000-
EAST SLOPES AND CENTRAL MONTANA

CITY           SKY/WX    TMP DP  RH WIND       PRES   REMARKS
CUT BANK         N/A     81  39  22 W43G55    29.92R
GREAT FALLS    SUNNY     93  22   7 W33G46    29.84F
MALMSTROM AFB  SUNNY     92  27   9 W30G39    29.85S
HELENA         CLOUDY    95  38  13 W20G26    29.87R HX  90
CHOTEAU          N/A     88  16   7 SW28G36   29.93R
$$

MTZ011-013-016-021-045-047-050-051-230000-
NORTH CENTRAL MONTANA

CITY           SKY/WX    TMP DP  RH WIND       PRES   REMARKS
HAVRE          SUNNY     97  49  19 SW16      29.74F HX  94
LEWISTOWN      CLOUDY    81  58  45 S12       29.91F
N BAR RANCH    DRIZZLE   81  43  26 W18G39    30.01R
CHINOOK          N/A     97  54  23 SE16      29.73F HX  94
$$

MTZ017>020-022>027-061-062-230000-
NORTHEAST MONTANA

CITY           SKY/WX    TMP DP  RH WIND       PRES   REMARKS
GLASGOW        CLOUDY    87  55  33 E14       29.81F
JORDAN           N/A     94  55  26 SE10      29.82F HX  92
SIDNEY         CLOUDY    90  64  42 E14       29.86F HX  91
WOLF POINT     CLOUDY    93  55  27 E10       29.86F HX  91
PLENTYWOOD       N/A     82  63  51 E16G24    29.93F
POPLAR           N/A     91  54  27 E17       29.86F
$$

MTZ028>42-056>058-230000-
SOUTHCENTRAL AND SOUTHEAST MONTANA

CITY           SKY/WX    TMP DP  RH WIND       PRES   REMARKS
BAKER          CLOUDY    95  62  33 E16       29.87F HX  96
BILLINGS       PTSUNNY   92  42  17 S8        29.88F
LIVINGSTON     CLOUDY    94  35  12 W16       29.91S
MILES CITY     CLOUDY   102  50  17 E6        29.80F HX  99
FORSYTH          N/A    100  48  17 N3        29.81F HX  97
LAUREL           N/A     89  50  26 E6        29.90F
ROUNDUP          N/A     92  45  19 E3        29.79S
$$

REGIONAL REPORTS...DAKOTAS

CITY           SKY/WX    TMP DP  RH WIND       PRES   REMARKS
WILLISTON      CLOUDY    90  59  35 E21       29.92F
MINOT          SUNNY     87  62  43 E13       29.97F
DICKINSON      SUNNY     89  69  51 E18G25    29.90F HX  93
BEACH            N/A     90  70  51 E22G29    29.91F HX  95
CROSBY           N/A     79  64  61 E16       29.99F
WATFORD CITY     N/A     90  63  40 E15G21    29.93F HX  90
BISMARCK       SUNNY     88  75  65 E20       29.90F HX  97
GRAND FORKS    CLOUDY    83  64  52 E8        29.97F
FARGO          PTSUNNY   84  69  60 NE7       29.98F
BUFFALO SD       N/A     75  58  55 N22G30    29.90R
RAPID CITY     CLOUDY    89  52  28 S17       29.93F
$$

REGIONAL REPORTS...WYOMING/IDAHO/WASHINGTON

CITY           SKY/WX    TMP DP  RH WIND       PRES   REMARKS
GILLETTE       SUNNY     94  40  15 NE13G25   29.96F HX  90
SHERIDAN       SUNNY    100  37  11 E3        29.90F HX  95
BUFFALO WY     CLOUDY    97  36  12 N8        30.00F HX  92
CODY           CLOUDY    84  43  23 S12       30.05F
YELLOWSTONE LA   N/A     78  34  20 VRB5G22   30.30F
IDAHO FALLS    MOSUNNY   91  28  10 W15G33    30.08F
SALMON         SUNNY     90  28  11 W12G23    29.93F
BOISE          SUNNY     89  39  17 NW14G21   30.07F
SPOKANE        PTSUNNY   69  52  54 W12G18    30.11S
$$

REGIONAL REPORTS...ALBERTA

CITY           SKY/WX    TMP DP  RH WIND       PRES   REMARKS
EDMONTON       SUNNY     81  50  34 NW5       29.83F
CALGARY        CLOUDY    68  55  64 S12       29.93R
LETHBRIDGE     TSTM      59  54  82 NW28G44   29.93R
MEDICINE HAT   PTSUNNY   79  63  57 N20       29.75F THUNDER
$$

REGIONAL REPORTS...SASKATCHEWAN

CITY           SKY/WX    TMP DP  RH WIND       PRES   REMARKS
SWIFT CURRENT  SUNNY     81  57  44 SE22G36   29.85F
REGINA         MOSUNNY   82  57  42 E16       29.95F
SASKATOON      PTSUNNY   79  57  47 SE15G22   29.91F
$$



USA.gov is the U.S. government's official web portal to all federal, state and local government web resources and services.